SCP
0 0 0 0 0 0 0 0 0 0 0 0 0 0 0 0 0 0 0 0 0 0 0 0 0 0 0 0 0 0 0 0 0 0 0 0 0 0 0 0 0 0 0 0
0 0 0 0 0 0 0 0 0 0 0 0 0 0 0 0 0 0 0 0 0 0 0 0 0 0 0 0 0 0 0 0 0 0 0 0 0 0 0 0 0 0 0 0
0 0 0 0 0 0 0 0 0 0 0 0 0 0 0 0 0 0 0 0 0 0 0 0 0 0 0 0 0 0 0 0 0 0 0 0 0 0 0 0 0 0 0 0
0 0 0 0 0 0 0 0 0 0 0 0 0 0 0 0 0 0 0 0 0 0 0 0 0 0 0 0 0 0 0 0 0 0 0 0 0 0 0 0 0 0 0 0
0 0 0 0 0 0 0 0 0 0 0 0 0 0 0 0 0 0 0 0 0 0 0 0 0 0 0 0 0 0 0 0 0 0 0 0 0 0 0 0 0 0 0 0
0 0 0 0 0 0 0 0 0 0 0 0 0 0 0 0 0 0 0 0 0 0 0 0 0 0 0 0 0 0 0 0 0 0 0 0 0 0 0 0 0 0 0 0
0 0 0 0 0 0 0 0 0 0 0 0 0 0 0 0 0 0 0 0 0 0 0 0 0 0 0 0 0 0 0 0 0 0 0 0 0 0 0 0 0 0 0 0
0 0 0 0 0 0 0 0 0 0 0 0 0 0 0 0 0 0 0 0 0 0 0 0 0 0 0 0 0 0 0 0 0 0 0 0 0 0 0 0 0 0 0 0
0 0 0 0 0 0 0 0 0 0 0 0 0 0 0 0 0 0 0 0 0 0 0 0 0 0 0 0 0 0 0 0 0 0 0 0 0 0 0 0 0 0 0 0
0 0 0 0 0 0 0 0 0 0 0 0 0 0 0 0 0 0 0 0 0 0 0 0 0 0 0 0 0 0 0 0 0 0 0 0 0 0 0 0 0 0 0 0
0 0 0 0 0 0 0 0 0 0 0 0 0 0 0 0 0 0 0 0 0 0 0 0 0 0 0 0 0 0 0 0 0 0 0 0 0 0 0 0 0 0 0 0
0 0 0 0 0 0 0 0 0 0 0 0 0 0 0 0 0 0 0 0 0 0 0 0 0 0 0 0 0 0 0 0 0 0 0 0 0 0 0 0 0 0 0 0
0 0 0 0 0 0 0 0 0 0 0 0 0 0 0 0 0 0 0 0 0 0 0 0 0 0 0 0 0 0 0 0 0 0 0 0 0 0 0 0 0 0 0 0
0 0 0 0 0 0 0 0 0 0 0 0 0 0 0 0 0 0 0 0 0 0 0 0 0 0 0 0 0 0 0 0 0 0 0 0 0 0 0 0 0 0 0 0
0 0 0 0 0 0 0 0 0 0 0 0 0 0 0 0 0 0 0 0 0 0 0 0 0 0 0 0 0 0 0 0 0 0 0 0 0 0 0 0 0 0 0 0
0 0 0 0 0 0 0 0 0 0 0 0 0 0 0 0 0 0 0 0 0 0 0 0 0 0 0 0 0 0 0 0 0 0 0 0 0 0 0 0 0 0 0 0
0 0 0 0 0 0 0 0 0 0 0 0 0 0 0 0 0 0 0 0 0 0 0 0 0 0 0 0 0 0 0 0 0 0 0 0 0 0 0 0 0 0 0 0
0 0 0 0 0 0 0 0 0 0 0 0 0 0 0 0 0 0 0 0 0 0 0 0 0 0 0 0 0 0 0 0 0 0 0 0 0 0 0 0 0 0 0 0
0 0 0 0 0 0 0 0 0 0 0 0 0 0 0 0 0 0 0 0 0 0 0 0 0 0 0 0 0 0 0 0 0 0 0 0 0 0 0 0 0 0 0 0
0 0 0 0 0 0 0 0 0 0 0 0 0 0 0 0 0 0 0 0 0 0 0 0 0 0 0 0 0 0 0 0 0 0 0 0 0 0 0 0 0 0 0 0
0 0 0 0 0 0 0 0 0 0 0 0 0 0 0 0 0 0 0 0 0 0 0 0 0 0 0 0 0 0 0 0 0 0 0 0 0 0 0 0 0 0 0 0
0 0 0 0 0 0 0 0 0 0 0 0 0 0 0 0 0 0 0 0 0 0 0 0 0 0 0 0 0 0 0 0 0 0 0 0 0 0 0 0 0 0 0 0
0 0 0 0 0 0 0 0 0 0 0 0 0 0 0 0 0 0 0 0 0 0 0 0 0 0 0 0 0 0 0 0 0 0 0 0 0 0 0 0 0 0 0 0
0 0 0 0 0 0 0 0 0 0 0 0 0 0 0 0 0 0 0 0 0 0 0 0 0 0 0 0 0 0 0 0 0 0 0 0 0 0 0 0 0 0 0 0
0 0 0 0 0 0 0 0 0 0 0 0 0 0 0 0 0 0 0 0 0 0 0 0 0 0 0 0 0 0 0 0 0 0 0 0 0 0 0 0 0 0 0 0
0 0 0 0 0 0 0 0 0 0 0 0 0 0 0 0 0 0 0 0 0 0 0 0 0 0 0 0 0 0 0 0 0 0 0 0 0 0 0 0 0 0 0 0
0 0 0 0 0 0 0 0 0 0 0 0 0 0 0 0 0 0 0 0 0 0 0 0 0 0 0 0 0 0 0 0 0 0 0 0 0 0 0 0 0 0 0 0
Wind_Speed
4 4 3 5 6 4 4 6 6 7 8 10 8 8 8 8 8 9 9 9 9 9 9 9 9 9 8 8 8 7 7 6 6 6 5 5 5 5 5 5 5 5 5 5
3 2 3 6 8 7 7 7 8 10 11 7 6 6 7 8 9 9 10 10 10 10 10 9 9 9 9 8 8 8 7 7 6 6 6 5 5 5 5 4 5 5 5 5
3 3 5 6 5 5 4 5 6 7 6 6 7 8 8 9 9 10 10 11 11 10 9 9 9 9 9 8 8 7 7 7 6 6 6 6 6 5 5 5 5 4 5 5
3 3 5 1 1 2 4 5 6 7 7 7 8 9 9 8 8 9 11 11 11 10 9 9 9 8 8 7 7 7 7 7 7 6 6 6 6 5 6 5 5 5 5 5
2 3 6 3 1 2 3 5 4 6 8 8 8 9 6 4 6 9 10 10 9 9 9 9 9 8 7 7 7 7 7 7 7 7 7 7 6 6 6 5 5 5 5 5
2 4 5 1 1 0 3 5 2 4 6 6 6 6 6 7 9 10 10 9 9 8 8 8 8 7 7 7 7 7 7 7 7 7 7 7 7 7 6 6 5 5 5 5
4 5 6 1 1 2 3 3 1 3 5 5 5 7 8 10 10 10 10 10 9 9 8 8 8 7 7 7 8 8 8 7 7 7 7 7 7 6 6 5 5 5 5 5
4 5 6 3 4 5 4 3 2 4 5 6 8 8 9 10 10 10 9 9 9 8 8 8 7 7 7 8 8 8 7 7 7 7 6 6 6 6 5 5 5 5 4 5
6 5 1 5 5 4 3 4 4 5 5 6 7 8 9 9 9 9 9 9 8 8 8 8 7 7 8 9 9 8 7 7 7 7 6 5 5 5 5 4 4 4 4 4
6 8 6 6 6 6 5 6 6 6 6 6 7 8 9 8 8 9 9 8 8 8 8 8 8 8 8 9 8 7 7 7 6 6 6 5 4 4 4 4 4 4 4 4
7 7 6 5 6 6 5 5 6 6 6 6 7 8 8 8 8 8 8 8 7 7 8 9 9 8 8 8 7 7 7 7 6 6 5 5 5 4 5 5 5 5 5 5
6 4 4 4 3 3 5 6 6 6 6 6 6 7 7 7 7 7 8 7 7 8 8 9 9 8 8 8 7 6 6 6 5 5 5 5 5 5 6 6 8 8 8 8
4 2 4 5 4 3 4 6 5 5 6 6 5 6 7 7 7 7 7 7 8 8 8 8 9 9 8 7 6 6 6 6 5 5 5 5 5 5 5 5 7 7 8 8
5 3 5 4 4 4 4 5 5 5 5 5 5 5 6 6 7 7 7 8 8 8 8 8 8 9 8 7 7 6 6 6 6 5 5 5 5 5 5 5 5 5 6 7
5 6 6 4 4 5 4 4 4 5 5 5 5 5 6 6 7 8 8 7 7 8 8 8 8 9 8 7 7 6 5 4 4 5 5 5 4 4 4 5 5 5 4 5
4 4 5 5 6 5 4 4 5 5 5 5 5 6 6 7 7 8 7 7 7 8 8 8 8 9 8 7 6 5 5 7 6 5 4 4 4 4 4 4 5 4 4 4
4 4 4 5 5 5 5 5 6 6 6 6 7 7 6 6 7 7 7 7 7 7 7 8 8 8 7 6 6 5 5 5 7 5 4 4 4 4 4 4 4 4 4 5
7 6 5 6 5 6 6 5 5 6 6 6 6 6 6 6 7 8 8 7 7 7 7 7 8 8 7 6 5 4 4 4 4 4 4 4 4 4 4 4 5 5 5 5
5 6 6 6 5 5 6 5 5 5 5 5 5 5 6 6 7 7 7 7 7 7 7 7 10 8 7 7 6 4 4 5 5 4 4 6 5 4 4 4 4 5 4 4
4 4 5 5 4 4 5 5 5 5 4 4 5 5 6 6 6 6 6 6 5 6 7 8 7 7 6 6 6 4 5 5 5 5 4 4 4 5 4 5 5 5 4 4
4 4 4 4 4 4 5 5 4 5 5 4 5 5 6 6 6 5 5 6 6 6 7 9 6 6 6 6 6 4 5 5 5 5 5 5 5 5 5 5 4 4 4 4
4 4 4 4 4 4 4 4 4 5 5 5 5 5 5 6 6 5 5 5 6 9 7 5 5 7 8 7 4 4 4 5 5 4 5 5 5 5 5 5 5 4 4 4
4 4 4 4 4 4 4 4 4 4 5 5 5 5 5 5 4 5 5 4 5 8 7 5 8 11 11 6 4 4 5 5 5 5 5 5 5 5 5 5 5 5 4 4
3 3 3 3 3 3 4 4 4 4 5 5 5 5 5 4 4 4 4 7 9 9 6 7 11 11 10 4 4 4 4 5 5 5 5 5 4 4 5 5 5 5 5 5
3 3 3 3 3 4 4 4 4 4 4 4 4 4 3 3 4 5 5 6 8 9 6 7 10 10 6 4 4 4 4 4 5 5 5 5 5 5 5 5 5 5 5 5
3 3 3 3 3 3 3 3 3 3 3 4 4 3 3 3 4 4 4 5 7 8 6 5 6 6 5 4 5 5 5 5 5 5 5 5 6 5 5 5 6 5 5 5
2 2 2 3 3 3 3 3 3 4 3 4 4 4 4 4 4 4 5 5 5 5 5 5 5 4 5 5 5 5 5 5 5 5 5 5 5 5 5 6 5 5 5 5
Wind_Direction
269 286 288 287 288 272 230 248 260 274 281 296 317 312 313 317 318 320 323 326 327 326 325 325 324 326 327 325 325 322 317 314 313 311 310 309 304 298 289 285 282 279 275 262
266 259 291 288 284 271 255 251 255 271 282 301 316 309 309 313 317 316 318 320 319 319 320 320 320 320 320 321 323 322 319 315 313 310 308 306 303 299 296 288 281 275 275 267
281 323 291 276 263 235 233 235 242 260 284 317 312 311 310 308 308 309 311 313 313 312 311 312 312 312 313 314 316 316 315 315 315 313 311 309 307 306 300 293 287 282 274 267
296 310 262 0 64 250 248 257 244 263 288 301 302 305 297 295 300 306 310 311 309 308 308 309 309 309 309 311 313 313 314 314 314 311 307 306 305 305 302 295 290 285 282 274
260 275 277 280 212 221 251 275 241 253 278 297 313 301 289 307 306 305 307 307 305 304 304 305 306 309 310 310 311 310 311 311 311 308 305 304 303 302 299 295 290 286 284 281
225 254 265 329 89 306 241 265 202 247 279 302 315 303 318 337 322 314 312 312 310 308 307 307 310 310 306 307 308 307 307 306 305 303 300 298 296 296 293 290 287 287 283 282
234 248 268 318 118 184 237 311 335 261 277 282 277 285 309 314 314 314 315 316 317 313 310 311 313 310 307 308 306 306 304 303 303 302 299 295 295 294 293 291 287 284 283 284
208 230 257 133 155 213 271 334 276 277 278 276 280 292 301 308 313 315 315 317 319 315 313 315 316 311 307 305 305 306 303 303 304 304 302 299 297 298 295 289 282 280 282 285
212 233 333 177 218 261 296 273 275 283 284 279 282 291 300 306 309 311 312 315 316 314 312 317 318 312 305 305 309 306 305 305 304 305 302 299 297 297 295 286 280 279 278 280
253 261 259 244 257 269 265 268 281 283 282 278 282 291 297 301 305 309 312 313 314 313 314 316 319 314 306 306 309 308 307 307 306 306 307 306 299 294 291 287 280 278 277 278
253 273 287 257 247 266 272 274 281 283 278 278 283 289 296 299 301 304 308 311 312 311 310 312 316 314 313 312 311 309 309 308 308 308 309 307 303 298 292 286 282 281 278 275
245 246 248 278 296 280 276 280 281 282 283 282 279 284 292 295 299 303 305 309 310 309 309 310 312 313 314 314 311 309 311 312 309 307 306 304 305 306 301 293 298 287 286 286
261 286 267 282 287 286 281 283 282 276 277 285 287 284 288 294 300 301 303 307 307 307 307 308 310 311 315 317 312 308 307 308 308 307 305 304 306 306 308 309 305 294 290 293
246 259 268 263 271 286 285 290 288 283 282 282 287 289 290 294 299 301 303 305 305 305 305 306 308 310 315 317 313 309 307 307 308 306 306 305 304 303 302 306 309 305 299 298
239 239 254 277 284 286 287 287 286 286 291 294 294 293 295 296 297 299 302 306 306 306 307 311 311 312 317 315 312 309 306 306 308 306 306 305 303 302 301 301 302 304 305 306
257 255 255 262 271 280 285 284 283 288 294 295 295 295 295 293 294 297 303 308 308 308 312 313 311 314 319 317 313 309 308 313 315 310 307 306 304 304 304 306 307 308 307 309
241 253 253 263 269 274 273 272 275 282 288 290 294 298 299 299 300 304 308 310 303 301 304 307 309 315 319 319 314 310 311 313 316 312 310 311 311 309 307 306 307 311 314 317
242 254 256 261 266 272 275 276 275 278 282 288 295 295 295 296 299 304 309 312 310 309 310 311 313 316 318 319 315 311 310 311 313 312 312 313 313 311 311 311 313 312 315 322
247 253 259 260 261 264 268 273 276 279 284 287 288 289 290 291 295 301 307 309 310 312 319 319 320 318 317 319 319 308 309 310 310 310 310 313 313 313 312 312 314 314 315 318
257 258 261 264 264 261 265 272 277 278 281 283 284 287 291 295 300 303 303 297 296 303 311 317 315 311 312 313 316 308 308 306 306 307 308 309 311 312 312 312 311 312 312 312
265 268 267 267 270 270 268 270 270 276 283 279 275 279 286 295 299 299 299 300 307 311 311 315 316 313 314 316 312 307 306 305 304 304 305 306 307 308 311 312 313 314 315 315
266 268 271 274 276 280 281 275 271 275 282 281 279 280 285 292 298 294 283 285 304 316 317 311 312 317 320 319 313 314 313 311 310 309 309 310 310 310 312 313 312 312 312 313
266 267 270 273 276 285 290 281 272 272 275 280 282 281 282 288 293 294 301 305 307 313 313 309 315 318 320 318 312 309 308 306 305 305 304 305 305 305 306 307 307 309 310 311
271 273 278 286 286 283 287 290 286 282 280 281 277 276 281 288 288 280 286 305 312 312 310 312 317 319 320 315 308 305 302 301 301 300 301 301 301 302 302 303 304 305 306 306
277 277 279 280 276 278 285 294 294 290 289 288 290 288 281 277 284 298 302 304 309 312 309 314 320 323 322 312 307 303 300 298 299 298 296 297 297 298 298 298 299 298 298 298
276 271 268 264 269 278 285 287 289 294 297 299 303 303 299 295 293 295 299 304 306 310 310 309 313 316 311 307 304 301 299 302 303 301 298 297 296 295 294 296 296 293 293 293
282 282 280 279 278 279 282 282 286 292 296 297 299 302 305 305 304 305 305 305 307 306 305 306 307 306 305 304 302 301 299 298 297 297 297 295 294 293 293 292 291 290 290 290